Regional Weather Roundup
Issued by NWS

Home | Current Version | Previous Version | Text Only | Print | Product List | Glossary On
Versions: 1 2 3 4 5 6 7 8 9 10 11 12 13 14 15 16 17 18 19 20 21 22 23 24 25 26 27 28 29 30 31 32 33 34 35 36 37 38 39 40 41 42 43 44 45 46 47 48 49 50
000
ASUS43 KIND 190609
RWRIN

WEATHER ROUNDUP FOR INDIANA
NATIONAL WEATHER SERVICE INDIANAPOLIS IN
100 AM EST FRI JAN 19 2018

NOTE: "FAIR" INDICATES FEW OR NO CLOUDS BELOW 12,000 FEET WITH NO
SIGNIFICANT WEATHER AND/OR OBSTRUCTIONS TO VISIBILITY.

* - STATION DOES NOT REPORT WEATHER SUCH AS PRECIPITATION OR FOG.

+ - STATION NOT QUALITY CONTROLLED BY THE NATIONAL WEATHER SERVICE.
    USE DATA WITH CAUTION...ESPECIALLY DEWPOINT AND RELATIVE
    HUMIDITY OBSERVATIONS.

INZ001>003-010>013-019-020-190700-
NORTHWEST INDIANA

CITY           SKY/WX    TMP DP  RH WIND       PRES   REMARKS
GARY /AIRPORT/ FAIR      30  19  65 SW9G16    30.00F WCI  21
KNOX *+        FAIR      27  18  69 SW14      30.04S WCI  15
LA PORTE +     FAIR      23  17  76 SW12      30.01F WCI  12
6HR MIN TEMP:  23; 6HR MAX TEMP:  26;

MICHIGAN CITY+ FAIR      27  18  69 SW8       30.00F WCI  18
MONTICELLO +   FAIR      23  13  65 SW10      30.07F WCI  12
6HR MIN TEMP:  23; 6HR MAX TEMP:  26;

RENSSELAER +   FAIR      27  16  63 SW16G23   30.06F WCI  14
VALPARAISO     FAIR      25  17  72 SW14      30.01F WCI  13
6HR MIN TEMP:  24; 6HR MAX TEMP:  28;


$$

LMZ046-743>745-190700-
SOUTHERN LAKE MICHIGAN

STATION/POSITION TIME  TEMP    WIND        PRES    WAVE
                       AIR SEA DIR/SP/G            HT
                 (UTC) (F)     (DEG/KT/KT) (MB)    (FT)
BURNS HARBOR     0540   29     200/ 16/ 22 1015.9F
MICHIGAN CITY    0540   30     190/ 20/ 23   N/A

$$

INZ004-005-014>016-021>024-190700-
NORTH CENTRAL INDIANA

CITY           SKY/WX    TMP DP  RH WIND       PRES   REMARKS
GOSHEN         FAIR      22  14  71 SW14G21   30.02S WCI   9
6HR MIN TEMP:  22; 6HR MAX TEMP:  25;

LOGANSPORT +   FAIR      23  14  68 SW15      30.08F WCI  10
PERU/GRISSOM   FAIR      23  14  68 SW17G24   30.07S WCI  10
6HR MIN TEMP:  23; 6HR MAX TEMP:  25;

ROCHESTER +    FAIR      27  18  69 SW10      30.06S WCI  17
SOUTH BEND     FAIR      23  15  71 SW15      30.00F WCI  10
6HR MIN TEMP:  23; 6HR MAX TEMP:  26;

WARSAW +       FAIR      25  14  63 SW10G16   30.04S WCI  15

$$

INZ006>009-017-018-025>027-190700-
NORTHEAST INDIANA

CITY           SKY/WX    TMP DP  RH WIND       PRES   REMARKS
AUBURN +       FAIR      27  14  59 SW9G18    30.03S WCI  17
FORT WAYNE     FAIR      24  14  65 SW15      30.06S WCI  11
6HR MIN TEMP:  23; 6HR MAX TEMP:  27;

HUNTINGTON +   FAIR      24  12  60 SW10G18   30.06F WCI  13
6HR MIN TEMP:  24; 6HR MAX TEMP:  26;

KENDALLVILLE + FAIR      25  15  67 SW14G22   30.01S WCI  13

$$

INZ028-029-035-036-043>045-051>053-190700-
WEST CENTRAL INDIANA

CITY           SKY/WX    TMP DP  RH WIND       PRES   REMARKS
CRAWFORDSVL +  FAIR      21  13  71 MISG        N/A
6HR MIN TEMP:  21; 6HR MAX TEMP:  23;

GREENCASTLE +  FAIR      23  12  63 SW6       30.15S WCI  16
LAFAYETTE      FAIR      24  13  62 SW7       30.10F WCI  16
6HR MIN TEMP:  24; 6HR MAX TEMP:  27;

TERRE HAUTE    FAIR      21  11  65 S8        30.18S WCI  11
6HR MIN TEMP:  20; 6HR MAX TEMP:  25;


$$

INZ030>032-037>040-046>048-054>057-064-065-190700-
CENTRAL INDIANA

CITY           SKY/WX    TMP DP  RH WIND       PRES   REMARKS
FRANKFORT +    FAIR      26  16  66 SW16      30.11S WCI  13
6HR MIN TEMP:  25; 6HR MAX TEMP:  28;

GREENWOOD *+   FAIR     N/A N/A N/A SW8       30.15F
INDIANAPOLIS   FAIR      23  11  60 SW12      30.14S WCI  12
6HR MIN TEMP:  22; 6HR MAX TEMP:  26;

-EAGLE CREEK   FAIR      24  11  57 SW9       30.13S WCI  14
6HR MIN TEMP:  24; 6HR MAX TEMP:  27;

MARION +       FAIR      23  14  67 SW14      30.10S HAZE    WCI  11
MT COMFORT *+  FAIR      21  14  73 S9        30.13S WCI  11
SHELBYVILLE    FAIR      20  10  65 S12       30.15S WCI   8
6HR MIN TEMP:  20; 6HR MAX TEMP:  27;

ZIONSVILLE +   FAIR      23  12  63 SW16G24   30.11S WCI   9
6HR MIN TEMP:  23; 6HR MAX TEMP:  25;


$$

INZ033-034-041-042-049-050-058-059-190700-
EAST CENTRAL INDIANA

CITY           SKY/WX    TMP DP  RH WIND       PRES   REMARKS
MUNCIE         FAIR      25  11  55 SW14G23   30.09S WCI  13
6HR MIN TEMP:  25; 6HR MAX TEMP:  29;

RICHMOND +     FAIR      21  12  68 SW15      30.13S WCI   8

$$

INZ060-061-067>069-081>083-085>088-190700-
SOUTHWEST INDIANA

CITY           SKY/WX    TMP DP  RH WIND       PRES   REMARKS
EVANSVILLE     FAIR      22  13  68 SW8       30.25F WCI  12
6HR MIN TEMP:  21; 6HR MAX TEMP:  28;

HUNTINGBURG +  FAIR      21  12  68 S9        30.24F WCI  11
6HR MIN TEMP:  20; 6HR MAX TEMP:  24;

WASHINGTON +   FAIR      24  11  56 SW9       30.22S WCI  14
6HR MIN TEMP:  24; 6HR MAX TEMP:  27;


$$

INZ062-063-066-070>080-084-089>092-190700-
SOUTH CENTRAL AND SOUTHEAST INDIANA

CITY           SKY/WX    TMP DP  RH WIND       PRES   REMARKS
BATESVILLE *+    N/A    N/A N/A N/A MISG        N/A
BEDFORD +      FAIR      25  10  54 SW7       30.20F WCI  17
BLOOMINGTON    FAIR      24  11  57 SW12      30.17S WCI  13
6HR MIN TEMP:  24; 6HR MAX TEMP:  27;

FRENCH LICK *+ FAIR      25   9  50 SW9       30.20F WCI  15
MADISON *+     FAIR      23  12  63 S6        30.23S WCI  16
NORTH VERNON + FAIR      19  10  68 S8        30.20F WCI   9
SEYMOUR +      FAIR      23  10  58 S7        30.21F WCI  15

$$




USA.gov is the U.S. government's official web portal to all federal, state and local government web resources and services.